Location: Newark
(60.0000°N, 100.0000°E)
Time: 08:23:49
(UTC+00:00)

N. Korean satellite - Pass Details

Date: 27 November 2019
Orbit: 455 x 506 km, 97.2° (Epoch: 11 December)

Event Time Altitude Azimuth Distance (km) Brightness Sun altitude
Rises 10:14:01 0° 171° (S) 2,596 10.4 -11.8°
Reaches altitude 10° 10:16:06 10° 175° (S) 1,719 9.6 -12.0°
Maximum altitude 10:19:48 64° 257° (WSW) 567 7.1 -12.4°
Drops below altitude 10° 10:23:31 10° 340° (NNW) 1,735 9.4 -12.9°
Sets 10:25:38 0° 344° (NNW) 2,623 10.3 -13.1°
